Regional Weather Roundup
Issued by NWS

Home | Current Version | Previous Version | Graphics & Text | Print | Product List | Glossary Off
Versions: 1 2 3 4 5 6 7 8 9 10 11 12 13 14 15 16 17 18 19 20 21 22 23 24 25 26 27 28 29 30 31 32 33 34 35 36 37 38 39 40 41 42 43 44 45 46 47 48 49 50

000
ASUS43 KTOP 010159
RWRKS

WEATHER ROUNDUP FOR KANSAS
NATIONAL WEATHER SERVICE GOODLAND KS
900 PM CDT MON AUG 31 2015

NOTE:  "FAIR" INDICATES FEW OR NO CLOUDS BELOW 12,000 FEET WITH NO
SIGNIFICANT WEATHER AND/OR OBSTRUCTIONS TO VISIBILITY.

KSZ001>006-013>018-027>032-041>047-010300-
NORTHWEST KANSAS

CITY           SKY/WX    TMP DP  RH WIND       PRES   REMARKS
GOODLAND       PTCLDY    76  52  43 SE6       29.93R
HAYS           CLEAR     84  54  34 SE13      29.89R
HILL CITY      CLEAR     86  51  29 S10       29.88R
RUSSELL        CLEAR     84  57  39 SE13      29.88R
$$

KSZ061>065-074>080-084>089-010300-
SOUTHWEST KANSAS

CITY           SKY/WX    TMP DP  RH WIND       PRES   REMARKS
DODGE CITY     CLEAR     80  52  37 S14       29.93R
ELKHART          N/A     76  55  48 S12         N/A
GARDEN CITY    CLEAR     76  55  48 SE9       29.91R
GREAT BEND     CLEAR     81  54  39 SE10      29.90R
LIBERAL        PTCLDY    81  48  32 S9        29.94R
$$

KSZ066>073-081>083-090>101-010300-
SOUTHEAST KANSAS

CITY           SKY/WX    TMP DP  RH WIND       PRES   REMARKS
CHANUTE        PTCLDY    77  71  82 SE7       29.98R
COFFEYVILLE    CLEAR     78  72  81 S9        29.97R
HUTCHINSON     CLEAR     78  63  59 E9        29.92R
NEWTON         CLEAR     79  63  57 SE10      29.97R
PARSONS        CLEAR     78  72  81 SE6       29.99R
WICHITA INTL   CLEAR     82  63  52 SE10      29.93R
WICHITA JABRA  CLEAR     81  64  56 S13       29.94R
WINFIELD       CLEAR     81  67  62 SE12      29.95R
$$

KSZ007>012-019>026-033>040-048>060-102>105-010300-
NORTHEAST KANSAS

CITY           SKY/WX    TMP DP  RH WIND       PRES   REMARKS
CONCORDIA      CLEAR     79  64  60 S13       29.90R
EMPORIA        CLEAR     79  67  66 S13       29.96R
LAWRENCE       CLEAR     77  71  82 SE6       29.96R
MANHATTAN      CLEAR     79  70  74 S5        29.91R
OLATHE IND     CLEAR     77  71  82 S8        29.98R
OLATHE EXE     CLEAR     76  70  82 S7        29.97R
SALINA         CLEAR     82  64  54 SE14      29.90R
TOPEKA BILLARD CLEAR     77  70  79 SE6       29.94R
TOPEKA FORBES  CLEAR     79  71  76 S8        29.95R
$$



USA.gov is the U.S. government's official web portal to all federal, state and local government web resources and services.